Wind_Speed
22 25 25 21 18 21 21 19 17 16 17 19 21 20 19 16 15 16 18 19 17 18 17 17 17 17 17 18 18 18 19 18 19
23 24 24 21 18 18 18 17 17 16 16 20 19 17 19 17 16 17 18 17 16 16 16 16 16 16 17 17 17 17 17 17 18
24 24 23 20 18 17 17 17 16 17 19 20 19 18 18 14 13 16 17 15 15 15 15 15 15 15 15 16 16 16 16 16 16
24 22 21 19 18 18 18 18 18 18 19 20 18 18 14 14 15 14 15 14 14 14 14 14 13 14 14 14 15 15 15 14 15
23 21 21 20 19 19 19 19 18 18 18 18 19 18 14 11 10 12 14 13 12 12 12 12 12 12 13 13 13 13 12 13 13
23 22 21 20 20 19 19 19 17 17 19 17 13 14 14 9 7 12 12 11 11 11 11 11 11 11 11 11 11 11 11 12 11
24 22 21 19 20 19 19 18 16 15 16 14 11 13 11 7 6 11 11 10 10 10 10 10 10 9 9 9 9 9 10 10 10
25 25 22 20 19 19 18 18 14 11 9 7 8 11 8 7 4 9 9 8 8 8 8 8 8 8 8 8 8 7 8 8 7
29 26 26 23 19 17 17 14 7 5 8 4 7 7 8 7 3 6 7 7 6 6 6 6 6 6 6 6 6 6 6 6 5
30 26 22 22 19 16 15 10 10 8 7 7 7 7 6 6 3 3 4 5 5 4 4 4 3 3 3 3 3 4 4 4 3
30 28 23 20 20 15 12 11 12 9 7 6 5 6 5 6 4 3 3 4 5 5 4 4 2 1 1 1 1 1 1 1 1
31 29 24 22 18 18 14 12 11 9 7 7 6 6 6 6 6 6 4 5 5 6 5 5 5 5 4 3 3 3 3 3 3
34 30 25 20 18 17 15 14 12 10 8 7 7 6 6 5 6 7 6 6 3 4 6 7 8 8 8 8 8 7 7 7 8
32 30 25 23 19 16 15 14 13 10 10 6 5 6 5 5 4 4 4 6 7 5 7 6 7 9 9 9 9 9 9 9 10
26 25 23 22 20 19 17 16 13 12 9 7 6 6 5 4 5 5 6 6 7 8 8 7 7 8 11 11 10 8 6 7 5
25 25 25 24 23 20 19 16 14 11 8 5 6 6 7 6 4 5 6 4 6 8 9 5 7 10 11 13 12 11 9 6 4
28 28 27 25 22 20 18 17 15 10 8 3 2 2 2 4 5 6 7 9 10 10 10 10 9 10 9 9 12 12 13 11 8
29 29 29 25 23 21 19 17 14 10 6 8 3 1 2 2 4 3 3 3 5 6 10 11 10 11 10 9 10 10 12 12 12
28 29 28 25 22 20 19 14 13 8 8 7 6 3 2 2 0 2 3 6 7 4 4 4 6 7 7 7 6 6 8 9 9
30 30 27 27 23 21 18 16 12 8 8 6 6 3 2 3 3 2 4 7 7 6 6 6 7 7 8 9 9 9 10 10 11
Wind_Direction
151 146 146 145 142 129 126 125 120 117 116 113 108 101 96 87 95 96 95 90 90 87 85 83 83 81 80 80 77 76 74 71 73
159 150 149 145 145 141 134 128 128 126 122 121 110 99 99 101 97 97 96 93 92 90 89 88 86 82 81 79 78 77 75 72 72
161 153 149 146 144 140 136 137 132 128 127 124 111 104 103 106 105 105 100 99 95 94 92 90 87 86 85 83 80 79 76 77 73
163 157 154 154 149 143 138 135 131 129 129 125 113 103 101 95 94 102 104 99 97 93 90 89 86 87 87 85 83 81 80 76 73
164 158 155 154 149 144 139 136 133 130 125 122 113 108 107 112 116 111 104 99 95 93 90 89 88 87 86 85 87 86 83 83 78
162 158 153 153 148 145 142 139 135 129 124 120 118 111 112 115 107 115 110 102 99 98 96 93 91 89 89 87 86 83 83 83 82
160 160 155 155 149 147 145 137 131 127 127 115 108 111 118 128 110 120 116 115 111 106 102 99 97 97 95 93 92 90 87 84 83
164 159 158 158 156 152 145 139 136 130 127 112 116 129 126 140 116 135 130 126 119 109 104 98 94 93 92 94 93 91 92 91 87
165 165 166 165 161 159 156 145 136 170 173 137 143 140 133 158 158 150 147 142 136 125 115 106 95 92 91 85 81 79 82 83 84
169 164 163 164 160 161 161 155 163 162 169 153 161 135 154 150 189 165 163 168 162 154 145 138 115 91 96 90 84 78 70 71 73
176 171 166 167 173 164 177 181 168 177 171 172 174 179 173 174 205 227 227 214 204 192 190 191 186 177 142 100 62 38 54 23 28
175 174 174 174 175 168 173 173 174 174 190 175 189 195 212 190 207 242 253 244 242 237 227 225 242 248 245 259 280 290 288 277 272
174 176 178 180 165 168 175 172 176 179 197 184 198 197 207 208 223 217 246 255 266 271 267 254 252 253 252 252 263 267 297 303 286
168 178 172 166 167 170 171 177 180 182 185 203 193 217 228 238 230 233 214 226 241 266 283 272 270 266 268 274 278 285 297 298 298
169 167 160 165 167 172 176 179 183 193 197 201 223 234 240 237 243 244 251 238 247 249 260 258 281 278 268 263 262 272 273 292 299
167 165 167 169 174 176 177 178 187 182 181 183 233 237 224 218 224 234 234 224 201 221 230 248 230 235 243 251 261 264 264 269 316
171 171 170 173 174 178 179 180 181 193 198 164 163 123 161 186 207 242 237 248 237 241 247 251 249 259 270 266 269 264 263 261 266
173 171 174 173 176 177 179 184 184 180 164 188 130 91 114 118 190 248 285 263 271 267 259 256 252 252 260 265 275 271 267 272 268
173 173 173 175 177 177 183 182 187 198 141 169 211 147 110 117 135 219 263 298 281 262 274 271 267 263 273 279 272 268 277 291 280
179 178 178 181 181 176 179 182 181 166 145 163 160 178 236 199 194 261 264 299 285 283 300 297 287 276 294 298 288 289 301 298 290
Height
823 825 828 832 834 836 838 841 842 844 846 847 848 849 850 851 851 851 852 852 852 852 853 853 854 854 854 854 854 853 853 853 853
823 826 828 832 835 838 839 841 843 845 847 850 850 851 852 853 853 854 855 855 855 855 855 856 856 856 857 857 857 857 856 857 856
824 827 829 832 836 838 840 843 845 846 849 851 852 853 854 854 855 856 856 857 858 858 858 858 858 858 859 859 859 859 860 859 859
825 828 830 833 836 839 842 844 846 848 851 853 854 855 856 856 857 858 859 860 860 861 861 861 861 861 861 861 861 861 861 862 861
827 830 831 834 837 840 843 845 848 850 852 855 856 857 859 859 860 861 862 863 864 864 864 864 864 864 864 864 864 863 863 863 863
828 831 833 836 839 841 844 846 849 852 854 856 857 858 860 860 861 863 864 865 866 866 865 865 866 866 866 866 867 867 866 866 866
828 832 835 837 840 843 845 848 851 854 856 857 858 859 861 861 863 864 865 866 866 866 866 866 867 867 868 867 868 867 868 868 867
828 832 836 839 842 843 847 849 852 854 857 858 859 861 862 862 863 865 866 867 867 868 868 868 869 869 869 869 868 869 869 868 868
827 831 834 838 842 844 847 849 852 854 857 858 860 861 862 862 863 864 866 867 868 868 869 870 870 870 869 870 870 869 869 869 869
825 831 834 838 842 845 847 849 853 855 857 859 860 861 862 863 863 864 865 866 868 869 869 870 870 870 870 870 870 870 870 869 869
824 830 834 837 841 844 847 850 853 855 857 858 860 861 862 863 863 864 865 866 867 868 869 870 870 870 870 870 870 870 869 870 869
822 828 833 836 840 844 847 850 852 854 856 857 859 860 861 863 864 864 865 866 867 868 869 870 870 871 871 871 871 870 869 869 868
820 827 831 834 838 843 846 849 851 853 855 856 858 860 861 862 864 865 865 866 866 868 868 869 870 870 870 870 871 871 870 870 869
819 824 828 833 837 841 844 847 850 851 853 855 857 859 860 862 863 865 865 866 866 866 867 867 867 868 870 870 870 870 871 870 870
817 822 826 831 836 839 842 846 848 850 851 854 856 858 860 861 862 864 864 865 864 865 865 864 865 865 866 866 867 867 867 868 867
816 820 824 829 833 837 840 843 846 849 851 853 855 857 858 859 860 861 862 863 862 862 864 863 862 862 863 863 864 865 864 865 866
814 818 823 828 832 836 839 841 845 847 850 852 853 855 858 859 859 861 861 861 861 861 862 863 862 862 862 862 862 862 863 862 862
810 815 821 825 829 833 836 840 842 845 847 850 852 854 858 858 860 859 860 860 859 859 859 859 859 859 859 859 859 860 861 859 861
808 812 818 822 826 831 835 839 841 843 845 849 851 851 854 857 860 860 859 859 857 857 857 857 857 858 859 859 859 860 861 861 862
805 809 814 818 823 828 832 836 838 840 844 848 850 850 853 855 858 858 858 858 857 857 857 856 857 858 859 859 859 860 861 860 859